| time (UTC) | temp F | wind direction | speed MPH | gust MPH | rain 1hr in | rain 24hr in | rain mn in | humidity % | barometer mb |
| 20260906211005 | 70 | 183 | 0.0 | 0.0 | 0.01 | 0.01 | 0.01 | 90 | 1017.7 |
| 20260906205004 | 71 | 202 | 1.0 | 5.0 | 0.00 | 0.00 | 0.00 | 86 | 1017.9 |
| 20260906195004 | 75 | 174 | 4.0 | 10.0 | 0.00 | 0.00 | 0.00 | 86 | 1017.0 |
| 20260906194004 | 76 | 174 | 3.0 | 6.0 | 0.00 | 0.00 | 0.00 | 86 | 1017.4 |
| 20260906192004 | 76 | 174 | 6.0 | 8.0 | 0.00 | 0.00 | 0.00 | 86 | 1016.9 |
| 20260906181003 | 76 | 184 | 1.0 | 5.0 | 0.00 | 0.00 | 0.00 | 92 | 1016.9 |
| 20260906173005 | 76 | 166 | 6.0 | 10.0 | 0.00 | 0.00 | 0.00 | 90 | 1017.2 |
| 20260906172004 | 76 | 178 | 6.0 | 14.0 | 0.00 | 0.00 | 0.00 | 91 | 1017.5 |
| 20260906170004 | 76 | 169 | 4.0 | 8.0 | 0.00 | 0.00 | 0.00 | 91 | 1017.2 |
| 20260906163004 | 75 | 166 | 2.0 | 7.0 | 0.00 | 0.00 | 0.00 | 91 | 1016.8 |
| 20260906151004 | 74 | 151 | 5.0 | 12.0 | 0.00 | 0.00 | 0.00 | 94 | 1017.3 |
| 20260906144004 | 73 | 165 | 2.0 | 3.0 | 0.00 | 0.00 | 0.00 | 94 | 1016.9 |
| 20260906142004 | 73 | 151 | 0.0 | 0.0 | 0.00 | 0.00 | 0.00 | 94 | 1016.9 |
| 20260906141003 | 73 | 159 | 1.0 | 4.0 | 0.00 | 0.00 | 0.00 | 94 | 1016.8 |
| 20260906131005 | 72 | 165 | 3.0 | 6.0 | 0.00 | 0.00 | 0.00 | 96 | 1016.9 |
| 20260906130004 | 72 | 159 | 2.0 | 6.0 | 0.00 | 0.00 | 0.00 | 96 | 1016.9 |
| 20260906123004 | 72 | 156 | 4.0 | 6.0 | 0.00 | 0.00 | 0.00 | 96 | 1016.6 |
| 20260906115003 | 72 | 144 | 6.0 | 13.0 | 0.00 | 0.00 | 0.00 | 96 | 1016.2 |
| 20260906114004 | 72 | 144 | 4.0 | 10.0 | 0.00 | 0.00 | 0.00 | 96 | 1016.2 |
| 20260906113003 | 72 | 147 | 0.0 | 3.0 | 0.00 | 0.00 | 0.00 | 96 | 1016.1 |
| 20260906112003 | 72 | 146 | 5.0 | 12.0 | 0.00 | 0.00 | 0.00 | 96 | 1016.3 |
| 20260906104005 | 72 | 153 | 5.0 | 8.0 | 0.00 | 0.00 | 0.00 | 95 | 1016.4 |
| 20260906091003 | 72 | 160 | 2.0 | 7.0 | 0.00 | 0.00 | 0.00 | 95 | 1016.1 |
| 20260906085004 | 72 | 152 | 3.0 | 8.0 | 0.00 | 0.00 | 0.00 | 95 | 1016.1 |
| 20260906080004 | 72 | 141 | 4.0 | 8.0 | 0.00 | 0.00 | 0.00 | 94 | 1016.1 |
| 20260906071004 | 73 | 119 | 1.0 | 4.0 | 0.00 | 0.00 | 0.00 | 94 | 1016.1 |
| 20260906063004 | 73 | 137 | 2.0 | 3.0 | 0.00 | 0.00 | 0.00 | 94 | 1016.3 |
| 20260906061003 | 73 | 121 | 2.0 | 4.0 | 0.00 | 0.00 | 0.00 | 93 | 1016.4 |
| 20260906060004 | 73 | 144 | 3.0 | 6.0 | 0.00 | 0.00 | 0.00 | 94 | 1016.3 |
| 20260906054003 | 74 | 134 | 3.0 | 7.0 | 0.00 | 0.00 | 0.00 | 94 | 1016.4 |
| 20260906045004 | 75 | 93 | 0.0 | 2.0 | 0.00 | 0.00 | 0.00 | 94 | 1016.2 |
| 20260906042004 | 75 | 90 | 0.0 | 0.0 | 0.00 | 0.00 | 0.00 | 94 | 1016.4 |
| 20260906041005 | 76 | 55 | 0.0 | 1.0 | 0.00 | 0.00 | 0.00 | 94 | 1016.3 |
| 20260906040003 | 76 | 87 | 0.0 | 0.0 | 0.00 | 0.00 | 0.00 | 94 | 1016.3 |
| 20260906033003 | 75 | 130 | 1.0 | 4.0 | 0.00 | 0.00 | 0.00 | 94 | 1015.9 |
| 20260906031004 | 75 | 123 | 2.0 | 4.0 | 0.00 | 0.00 | 0.00 | 93 | 1015.6 |
| 20260906024004 | 76 | 124 | 1.0 | 6.0 | 0.00 | 0.00 | 0.00 | 92 | 1015.6 |
| 20260906021002 | 77 | 103 | 0.0 | 0.0 | 0.00 | 0.00 | 0.00 | 91 | 1015.5 |
| 20260906015004 | 77 | 139 | 1.0 | 4.0 | 0.00 | 0.00 | 0.00 | 90 | 1015.4 |
| 20260906012003 | 78 | 142 | 0.0 | 0.0 | 0.00 | 0.00 | 0.00 | 88 | 1015.3 |
| 20260906011004 | 79 | 140 | 1.0 | 3.0 | 0.00 | 0.00 | 0.00 | 88 | 1015.4 |
| 20260906004004 | 80 | 171 | 6.0 | 7.0 | 0.00 | 0.00 | 0.00 | 86 | 1014.9 |
| 20260905234003 | 82 | 146 | 6.0 | 11.0 | 0.00 | 0.00 | 0.00 | 82 | 1014.7 |
| 20260905231003 | 83 | 148 | 8.0 | 13.0 | 0.00 | 0.00 | 0.00 | 80 | 1014.6 |
| 20260905225005 | 83 | 140 | 8.0 | 13.0 | 0.00 | 0.00 | 0.00 | 79 | 1014.5 |
| 20260905223004 | 83 | 132 | 5.0 | 9.0 | 0.00 | 0.00 | 0.00 | 78 | 1014.3 |
| 20260905222006 | 83 | 156 | 10.0 | 15.0 | 0.00 | 0.00 | 0.00 | 76 | 1014.3 |
| 20260905221003 | 84 | 142 | 9.0 | 13.0 | 0.00 | 0.00 | 0.00 | 76 | 1014.4 |